Regional Weather Roundup
Issued by NWS

Home | Current Version | Previous Version | Graphics & Text | Print | Product List | Glossary On
Versions: 1 2 3 4 5 6 7 8 9 10 11 12 13 14 15 16 17 18 19 20 21 22 23 24 25 26 27 28 29 30 31 32 33 34 35 36 37 38 39 40 41 42 43 44 45 46 47 48 49 50
000
ASUS43 KIND 020009
RWRIN

WEATHER ROUNDUP FOR INDIANA
NATIONAL WEATHER SERVICE INDIANAPOLIS IN
800 PM EDT SAT AUG 01 2015

NOTE: "FAIR" INDICATES FEW OR NO CLOUDS BELOW 12,000 FEET WITH NO
SIGNIFICANT WEATHER AND/OR OBSTRUCTIONS TO VISIBILITY.

* - STATION DOES NOT REPORT WEATHER SUCH AS PRECIPITATION OR FOG.

+ - STATION NOT QUALITY CONTROLLED BY THE NATIONAL WEATHER SERVICE.
    USE DATA WITH CAUTION...ESPECIALLY DEWPOINT AND RELATIVE
    HUMIDITY OBSERVATIONS.

INZ001>003-010>013-019-020-020100-
NORTHWEST INDIANA

CITY           SKY/WX    TMP DP  RH WIND       PRES   REMARKS
GARY /AIRPORT/ PTSUNNY   84  61  45 W12G25    29.90F
KNOX *+        MOSUNNY   81  55  41 W9G18     29.91F
LA PORTE +     MOSUNNY   81  63  54 SW5       29.91F
6HR MIN TEMP:  81; 6HR MAX TEMP:  86;

MICHIGAN CITY+ SUNNY     81  54  39 W7        29.90F
MONTICELLO +   SUNNY     79  61  53 SW9       29.94S
6HR MIN TEMP:  79; 6HR MAX TEMP:  84;

RENSSELAER +   SUNNY     79  61  53 SW10      29.94S
VALPARAISO     SUNNY     81  60  48 SW14      29.92F
6HR MIN TEMP:  80; 6HR MAX TEMP:  85;


$$

LMZ046-743>745-020100-
SOUTHERN LAKE MICHIGAN

STATION/POSITION TIME  TEMP    WIND        PRES    WAVE
                       AIR SEA DIR/SP/G            HT
                 (UTC) (F)     (DEG/KT/KT) (MB)    (FT)
BURNS HARBOR     2300   81     260/ 16/ 19 1012.9F
MICHIGAN CITY    2300   78      30/  1/  2   N/A
5NW MICH CITY    0000   79 75  240/  6/  8   N/A     1

$$

INZ004-005-014>016-021>024-020100-
NORTH CENTRAL INDIANA

CITY           SKY/WX    TMP DP  RH WIND       PRES   REMARKS
GOSHEN         PTCLDY    77  60  55 SW7       29.92F
6HR MIN TEMP:  77; 6HR MAX TEMP:  82;

LOGANSPORT +   MOSUNNY   75  55  50 SW7       29.95F
PERU/GRISSOM   PTCLDY    78  60  52 SW10      29.94S
6HR MIN TEMP:  78; 6HR MAX TEMP:  84;

ROCHESTER +    MOSUNNY   81  61  50 SW3       29.93F
SOUTH BEND     PTSUNNY   81  60  48 SW5       29.91F
6HR MIN TEMP:  78; 6HR MAX TEMP:  84;

WARSAW +       PTCLDY    79  59  50 W3        29.93S

$$

INZ006>009-017-018-025>027-020100-
NORTHEAST INDIANA

CITY           SKY/WX    TMP DP  RH WIND       PRES   REMARKS
ANGOLA *+      PTCLDY    77  61  57 CALM      29.93S
AUBURN +       CLEAR     79  52  38 CALM      29.94F
FORT WAYNE     PTCLDY    80  56  43 SW5       29.94F
6HR MIN TEMP:  78; 6HR MAX TEMP:  84;

HUNTINGTON +   PTCLDY    78  57  49 W5        29.94S
6HR MIN TEMP:  78; 6HR MAX TEMP:  82;


$$

INZ028-029-035-036-043>045-051>053-020100-
WEST CENTRAL INDIANA

CITY           SKY/WX    TMP DP  RH WIND       PRES   REMARKS
CRAWFORDSVL +  MOSUNNY   76  58  54 SW5         N/A
6HR MIN TEMP:  76; 6HR MAX TEMP:  80;

GREENCASTLE +  SUNNY     77  59  53 CALM      29.99F
LAFAYETTE      MOSUNNY   77  64  64 SW5       29.95F
6HR MIN TEMP:  77; 6HR MAX TEMP:  83;

TERRE HAUTE    SUNNY     81  60  48 SW6       29.98S
6HR MIN TEMP:  81; 6HR MAX TEMP:  85;


$$

INZ030>032-037>040-046>048-054>057-064-065-020100-
CENTRAL INDIANA

CITY           SKY/WX    TMP DP  RH WIND       PRES   REMARKS
FRANKFORT +    MOSUNNY   76  66  71 S5        29.99F
6HR MIN TEMP:  76; 6HR MAX TEMP:  84;

GREENWOOD *+   FAIR      79  54  41 W7        29.99S
INDIANAPOLIS   PTCLDY    79  56  45 W12       29.97F
6HR MIN TEMP:  79; 6HR MAX TEMP:  84;

-EAGLE CREEK   MOCLDY    79  57  46 VRB5      29.97F
6HR MIN TEMP:  79; 6HR MAX TEMP:  83;

KOKOMO *+      CLEAR     79  57  47 W8        29.96S
6HR MIN TEMP:  79; 6HR MAX TEMP:  84;

MARION +       CLEAR     77  58  51 W7        29.96S HAZE
MT COMFORT *+  PTCLDY    75  55  50 W6        29.99S
SHELBYVILLE    PTCLDY    79  61  53 SW7       29.97S
6HR MIN TEMP:  79; 6HR MAX TEMP:  85;

ZIONSVILLE +   MOCLDY    76  61  59 SW3       29.98F
6HR MIN TEMP:  76; 6HR MAX TEMP:  82;


$$

INZ033-034-041-042-049-050-058-059-020100-
EAST CENTRAL INDIANA

CITY           SKY/WX    TMP DP  RH WIND       PRES   REMARKS
MUNCIE         CLEAR     76  56  49 W6        29.96S
6HR MIN TEMP:  76; 6HR MAX TEMP:  81;


$$

INZ060-061-067>069-081>083-085>088-020100-
SOUTHWEST INDIANA

CITY           SKY/WX    TMP DP  RH WIND       PRES   REMARKS
EVANSVILLE     MOSUNNY   85  60  42 N6        29.99S
6HR MIN TEMP:  84; 6HR MAX TEMP:  89;

HUNTINGBURG *+ PTCLDY    82  61  47 CALM      29.99S
6HR MIN TEMP:  82; 6HR MAX TEMP:  86;

WASHINGTON +   SUNNY     81  58  45 CALM      29.97F
6HR MIN TEMP:  81; 6HR MAX TEMP:  85;


$$

INZ062-063-066-070>080-084-089>092-020100-
SOUTH CENTRAL AND SOUTHEAST INDIANA

CITY           SKY/WX    TMP DP  RH WIND       PRES   REMARKS
BLOOMINGTON    CLEAR     79  63  57 CALM      30.00R
6HR MIN TEMP:  79; 6HR MAX TEMP:  84;

MADISON *+     CLEAR     79  55  44 CALM      30.01S
NORTH VERNON + PTCLDY    81  55  41 CALM      29.99S
SEYMOUR +      CLEAR     82  59  44 NW3       29.98S

$$




USA.gov is the U.S. government's official web portal to all federal, state and local government web resources and services.